Home > Weather > Viersen > Past weeks

Flag for Germany Past Weather in Viersen, North Rhine-Westphalia, Germany — Yesterday and Last 2 Weeks

Now
68 °F

Scattered clouds.


Feels Like: 68 °F
Forecast: 63 / 72 °F
Wind: 8 mph from West

Location: Monchengladbach Airport

Current Time: Jul 27, 2016 at 11:45:46 AM

Latest Report: Jul 27, 2016 at 10:50 AM


Visibility: N/A

Pressure: 30.07 "Hg

Humidity: 69%

Dew Point: 57 °F

Location of ViersenLocation

Past Weather in Viersen — Graph

°F

Viersen Temperature Yesterday

Maximum temperature yesterday: 73 °F (at 4:50 PM)
Minimum temperature yesterday: 64 °F (at 7:50 AM)
Average temperature yesterday: 70 °F

High & Low Weather Summary for the Past Weeks

 TemperatureHumidityPressure
High95 °F (Jul 20, 4:50 PM)100% (Jul 24, 7:50 AM)30.30 "Hg (Jul 24, 7:50 AM)
Low54 °F (Jul 15, 6:50 AM)30% (Jul 20, 4:50 PM)29.83 "Hg (Jul 20, 5:20 PM)
Average73 °F63%30.08 "Hg
* Reported Jul 12 10:20 AM — Jul 27 10:20 AM, Viersen, Weather by CustomWeather, © 2016

Note: Actual official high and low records may vary slightly from our data, if they occured in-between our weather recording intervals... More about our weather records

Advertising

Viersen Weather History for the Previous 24 Hours

Scroll right to see more
 ConditionsComfort  
Time TempWeatherWind HumidityBarometerVisibility
10:20 AM
Wed, Jul 27
66 °FScattered clouds.8 mph73%30.07 "HgN/A
9:50 AM66 °FScattered clouds.7 mph73%30.07 "HgN/A
9:20 AM64 °FPassing clouds.7 mph78%30.07 "HgN/A
8:50 AM64 °FPassing clouds.6 mph83%30.07 "HgN/A
8:20 AM63 °FPassing clouds.6 mph83%30.07 "HgN/A
7:50 AM63 °FPassing clouds.6 mph83%30.07 "HgN/A
7:20 AM61 °FPassing clouds.5 mph88%30.07 "HgN/A
6:50 AM59 °FSunny.3 mph94%30.07 "Hg10 mi
8:20 PM
Tue, Jul 26
70 °FClear.3 mph69%30.09 "Hg10 mi
7:50 PM72 °FClear.3 mph65%30.09 "Hg10 mi
7:20 PM72 °FClear.5 mph65%30.12 "Hg10 mi
6:50 PM72 °FClear.3 mph65%30.09 "Hg10 mi
6:20 PM73 °FClear.3 mph57%30.09 "Hg10 mi
5:50 PM73 °FClear.3 mph57%30.12 "Hg10 mi
5:20 PM73 °FPassing clouds.5 mph61%30.12 "HgN/A
4:50 PM73 °FClear.3 mph57%30.12 "Hg10 mi
4:20 PM72 °FPassing clouds.5 mph61%30.12 "HgN/A
3:50 PM72 °FClear.5 mph61%30.12 "Hg10 mi
3:20 PM72 °FClear.2 mph57%30.12 "Hg10 mi
2:50 PM72 °FClear.2 mph61%30.12 "Hg10 mi
2:20 PM72 °FClear.1 mph57%30.15 "Hg10 mi
1:50 PM70 °FClear.1 mph64%30.15 "Hg10 mi
1:20 PM70 °FPassing clouds.5 mph60%30.15 "HgN/A
12:50 PM72 °FSunny.3 mph57%30.15 "Hg10 mi
12:20 PM72 °FPassing clouds.5 mph57%30.15 "HgN/A
11:50 AM70 °FPassing clouds.5 mph60%30.15 "HgN/A
11:20 AM70 °FSunny.3 mph69%30.15 "Hg10 mi
Weather by CustomWeather, © 2016

See weather overviewHow to use our weather pages